Temp
-5 -4 -4 -4 -3 -3 -2 -3 -3 -3 -3 -3 -2 -3 -3 -3 -3 -3 -3 -3 -4 -3 -3 -3 -2 -2 -2 -1 -2 -1 -2 -2 -4 -3 -5 -4 -2 1 2 4 4 4 4 3 2 3 2 9 9 8 8 10 10 11
-5 -4 -4 -4 -4 -3 -3 -3 -4 -3 -3 -3 -3 -3 -3 -3 -3 -3 -4 -3 -3 -4 -3 -3 -2 -2 -2 -2 -2 -1 -1 -1 -0 -2 -1 -1 0 0 2 2 5 3 5 4 4 3 6 8 9 10 11 10 10 10
-5 -4 -4 -4 -4 -4 -4 -4 -3 -4 -4 -3 -3 -3 -3 -3 -3 -4 -4 -4 -4 -4 -3 -3 -3 -0 -1 -0 0 -2 -1 -1 -1 -1 -2 -1 -1 0 -0 2 3 5 6 3 3 4 6 6 8 9 9 10 10 10
-5 -5 -5 -4 -4 -4 -4 -4 -3 -4 -4 -4 -4 -3 -3 -3 -4 -4 -4 -4 -4 -4 -4 -2 -1 -1 -0 0 0 0 0 -2 -2 -1 -1 -1 0 1 -0 1 1 3 4 4 4 5 6 8 8 9 9 9 9 9
-5 -5 -5 -5 -4 -5 -4 -5 -5 -5 -4 -4 -4 -3 -3 -4 -4 -4 -4 -4 -4 -4 -4 -3 -2 1 2 1 0 0 -0 -1 -2 -1 -1 -1 -0 1 -1 0 0 3 3 2 3 5 6 7 8 8 8 8 9 9
-5 -5 -5 -5 -5 -5 -5 -5 -5 -5 -5 -4 -3 -3 -4 -4 -5 -5 -4 -3 -4 -4 -4 -4 -0 1 1 1 1 1 2 -0 -0 -1 -0 -0 2 1 -1 -0 4 6 6 6 5 6 6 7 8 7 6 7 7 7
-5 -4 -5 -5 -4 -5 -5 -5 -5 -5 -4 -4 -4 -4 -4 -4 -5 -5 -4 -3 -3 -3 -3 -3 -3 2 2 1 1 0 0 -0 -1 -1 -1 -0 0 1 -2 0 3 4 5 6 6 7 6 6 5 5 6 5 6 6
-5 -5 -5 -5 -4 -4 -4 -4 -5 -5 -4 -4 -4 -4 -4 -4 -4 -5 -3 -2 -4 -4 -4 -4 -3 -0 2 0 -0 -0 -1 -2 -2 -1 -1 -1 0 -0 1 2 4 5 3 4 5 5 4 4 4 4 4 4 4 3
-7 -7 -6 -5 -5 -5 -4 -4 -4 -5 -4 -4 -4 -4 -4 -4 -5 -2 -2 -2 -3 -3 -3 -3 -3 -4 1 1 0 -0 -0 -1 -1 -1 -1 0 -0 -0 2 3 3 3 3 4 4 3 3 2 2 2 1 1 1 1
-7 -7 -7 -7 -6 -6 -5 -4 -4 -4 -4 -4 -4 -4 -4 -3 -3 -3 -3 -3 -3 -3 -3 -3 -0 -2 1 -0 0 -0 -0 -1 -1 -0 2 -1 0 3 1 3 2 2 2 2 1 0 0 -0 -1 -1 -1 -1 -1 -1
-7 -7 -7 -7 -6 -6 -6 -5 -4 -4 -3 -4 -3 -3 -3 -2 -2 -2 -2 -2 -2 -3 -2 -2 -1 -2 0 -0 -1 3 -1 -1 -1 1 0 1 1 1 -1 -1 0 -0 -0 -1 -1 -2 -2 -2 -2 -2 -2 -3 -3 -3
-7 -7 -7 -7 -7 -7 -7 -6 -5 -5 -4 -3 -4 -3 -2 -2 -1 -2 -3 -1 -1 -0 -1 -2 0 0 1 1 0 -0 0 -0 1 1 0 1 -0 0 -0 -1 -1 -2 -2 -3 -3 -3 -3 -3 -3 -3 -4 -4 -4 -4
-7 -8 -7 -7 -7 -7 -7 -6 -5 -5 -4 -4 -4 -4 -3 -3 -5 -3 -4 -1 -2 1 3 2 1 2 1 1 -0 -0 -0 -2 0 -4 0 -0 -1 -1 -1 -2 -2 -3 -3 -3 -3 -4 -4 -4 -4 -4 -5 -5 -5 -5
-7 -8 -7 -7 -7 -6 -7 -6 -5 -5 -5 -4 -3 -6 -4 -4 -2 -1 -1 -2 3 2 1 -0 -0 -0 2 -1 -0 0 1 -0 -2 -2 1 -1 -2 -2 -2 -3 -3 -3 -4 -4 -4 -4 -4 -4 -4 -4 -4 -4 -5 -5
-7 -7 -7 -6 -7 -6 -6 -5 -5 -5 -5 -4 -2 -5 -2 -0 2 2 2 2 2 2 1 0 1 2 -1 -0 0 1 -0 -1 0 -2 -1 -1 -2 -2 -3 -3 -3 -4 -4 -4 -4 -4 -4 -5 -4 -4 -4 -4 -5 -5
-8 -7 -7 -7 -7 -7 -6 -5 -5 -5 -5 -4 -3 -3 -0 -2 -3 1 1 1 1 1 1 0 -1 -1 0 0 1 -1 1 -2 -2 -3 -1 -2 -2 -3 -3 -4 -4 -4 -4 -4 -4 -4 -4 -5 -4 -4 -4 -5 -5 -5
-8 -7 -7 -7 -7 -7 -7 -6 -5 -5 -4 -3 -4 -2 -1 -1 -1 -1 -0 0 1 0 -3 -1 -2 -0 -1 -1 1 -1 -3 -2 -2 -3 -3 -3 -3 -4 -4 -4 -5 -4 -5 -4 -4 -4 -4 -4 -4 -4 -4 -4 -5 -5
-8 -7 -7 -7 -7 -7 -6 -6 -5 -4 -3 -3 -4 -2 -1 -1 -1 -1 -0 0 0 -0 -1 -1 0 0 -0 0 -1 -4 -2 -2 -3 -4 -4 -4 -4 -5 -4 -4 -5 -5 -5 -4 -4 -4 -5 -5 -5 -5 -4 -4 -4 -5
-8 -8 -7 -8 -8 -8 -7 -5 -5 -4 -3 -2 -2 -1 -1 -1 -0 -0 0 -0 -0 -1 -1 -1 -1 -1 -2 -3 -3 -3 -4 -4 -5 -5 -4 -4 -5 -5 -5 -5 -4 -4 -4 -4 -4 -4 -4 -5 -5 -5 -6 -5 -5 -5
-8 -8 -7 -7 -8 -8 -7 -6 -4 -3 -3 -2 -1 -2 -1 -1 -1 -0 -0 -0 -1 -3 -3 -2 -3 -3 -4 -5 -5 -5 -5 -5 -6 -6 -5 -6 -6 -7 -6 -6 -5 -4 -4 -4 -4 -4 -5 -5 -6 -6 -6 -6 -5 -5
-8 -8 -8 -8 -8 -8 -7 -6 -4 -3 -2 -1 -1 -1 -1 -0 -0 -0 -1 -1 -3 -3 -4 -1 -4 -5 -4 -5 -6 -6 -7 -7 -7 -7 -7 -7 -8 -8 -6 -6 -5 -5 -5 -5 -5 -5 -5 -6 -6 -6 -6 -6 -6 -5
-8 -8 -8 -8 -8 -7 -7 -6 -5 -3 -2 -2 -1 -1 -2 -5 -2 -1 -2 -3 -3 -2 -2 -4 -5 -5 -6 -6 -7 -7 -7 -8 -8 -7 -8 -8 -9 -8 -7 -7 -7 -6 -6 -6 -6 -5 -5 -6 -6 -6 -6 -6 -6 -6
-8 -8 -9 -8 -8 -6 -5 -4 -4 -4 -5 -4 -1 -3 -4 -4 -1 -1 -3 -3 -4 -4 -4 -5 -5 -6 -6 -7 -8 -8 -9 -9 -8 -8 -9 -9 -9 -9 -8 -8 -8 -7 -7 -7 -7 -6 -6 -6 -6 -6 -6 -6 -6 -6
-8 -9 -8 -8 -7 -9 -4 -3 -3 -3 -2 -3 -3 -3 -3 -5 -3 -4 -4 -5 -6 -6 -6 -6 -7 -7 -8 -8 -9 -9 -8 -9 -9 -9 -9 -10 -11 -10 -10 -9 -10 -9 -9 -9 -8 -7 -6 -6 -6 -6 -6 -6 -6 -6
-9 -8 -8 -9 -6 -7 -8 -6 -5 -3 -7 -5 -4 -6 -6 -4 -4 -4 -5 -7 -7 -7 -7 -7 -7 -7 -7 -8 -9 -9 -9 -9 -10 -10 -10 -11 -12 -11 -11 -11 -11 -11 -10 -9 -8 -8 -7 -7 -6 -6 -6 -6 -6 -6
-8 -7 -8 -8 -8 -7 -6 -8 -7 -7 -6 -6 -4 -4 -4 -4 -4 -5 -7 -6 -7 -7 -7 -7 -7 -8 -8 -8 -9 -10 -10 -10 -10 -11 -11 -11 -11 -12 -13 -13 -12 -11 -11 -11 -11 -10 -9 -8 -7 -7 -6 -6 -6 -6
-8 -8 -6 -5 -4 -4 -5 -4 -2 -4 -6 -7 -7 -7 -4 -5 -6 -9 -8 -7 -8 -8 -8 -8 -8 -8 -9 -10 -10 -10 -11 -11 -11 -11 -12 -12 -12 -12 -12 -12 -12 -12 -12 -12 -12 -12 -11 -10 -8 -7 -7 -6 -6 -6
-7 -5 -8 -6 -5 -4 -5 -5 -5 -6 -6 -4 -4 -4 -5 -7 -8 -8 -8 -9 -8 -9 -9 -9 -10 -10 -10 -11 -11 -12 -12 -12 -12 -12 -12 -12 -12 -13 -13 -12 -12 -12 -12 -12 -12 -12 -11 -11 -10 -8 -7 -7 -6 -6
-6 -5 -5 -6 -6 -5 -5 -5 -6 -5 -5 -4 -8 -7 -9 -10 -9 -10 -10 -10 -10 -10 -10 -11 -11 -11 -11 -11 -12 -12 -11 -12 -11 -12 -12 -13 -13 -13 -13 -12 -12 -12 -12 -11 -12 -12 -12 -11 -10 -9 -8 -7 -7 -7
-7 -5 -7 -6 -6 -7 -7 -6 -7 -7 -7 -7 -8 -9 -10 -11 -10 -10 -10 -10 -11 -11 -11 -12 -12 -12 -12 -13 -12 -12 -12 -12 -12 -12 -13 -13 -14 -13 -13 -13 -12 -12 -13 -13 -12 -11 -11 -10 -9 -9 -8 -7 -7 -7
-5 -4 -6 -6 -7 -8 -9 -9 -9 -8 -8 -8 -8 -8 -11 -12 -11 -11 -11 -11 -11 -11 -11 -12 -12 -12 -12 -13 -13 -13 -13 -13 -13 -13 -14 -14 -13 -14 -14 -13 -13 -13 -13 -13 -14 -13 -12 -11 -10 -10 -9 -8 -7 -7
-5 -6 -8 -9 -10 -10 -9 -9 -9 -9 -9 -9 -10 -10 -11 -11 -11 -11 -11 -11 -11 -11 -12 -12 -13 -13 -13 -13 -13 -13 -13 -13 -14 -14 -14 -14 -14 -14 -14 -14 -14 -14 -14 -13 -14 -13 -13 -12 -11 -11 -10 -9 -8 -7
-6 -7 -8 -9 -11 -10 -9 -8 -8 -9 -8 -8 -9 -10 -10 -10 -11 -12 -12 -12 -12 -12 -12 -13 -13 -13 -13 -13 -14 -14 -14 -14 -14 -14 -14 -14 -14 -14 -14 -14 -14 -14 -14 -14 -14 -13 -13 -13 -12 -12 -11 -10 -9 -7
Height
1433 1433 1434 1434 1435 1435 1435 1435 1434 1434 1433 1433 1433 1434 1434 1434 1435 1437 1435 1437 1438 1431 1422 1422 1421 1421 1420 1421 1420 1414 1416 1408 1408 1410 1414 1408 1398 1386 1384 1377 1377 1378 1378 1376 1383 1382 1380 1342 1338 1344 1345 1342 1343 1345
1428 1428 1429 1429 1430 1430 1429 1429 1429 1428 1428 1427 1427 1427 1429 1430 1431 1431 1429 1432 1432 1428 1415 1415 1412 1411 1413 1412 1413 1411 1410 1408 1407 1408 1403 1400 1394 1392 1382 1378 1366 1370 1364 1367 1364 1356 1345 1341 1342 1340 1340 1342 1342 1342
1426 1426 1426 1425 1426 1425 1425 1424 1423 1424 1423 1422 1421 1422 1422 1424 1426 1426 1425 1425 1425 1419 1408 1402 1396 1397 1399 1400 1404 1405 1401 1403 1402 1402 1402 1398 1392 1383 1383 1372 1365 1360 1357 1362 1358 1349 1348 1349 1345 1341 1338 1338 1337 1338
1422 1422 1421 1421 1421 1421 1420 1420 1419 1419 1419 1418 1417 1418 1418 1419 1420 1420 1419 1419 1420 1416 1408 1390 1391 1389 1390 1392 1392 1391 1388 1394 1394 1395 1392 1388 1386 1380 1375 1370 1367 1362 1357 1350 1346 1345 1343 1341 1341 1339 1336 1334 1334 1334
1419 1419 1418 1418 1417 1416 1416 1415 1414 1414 1413 1413 1413 1413 1414 1414 1415 1414 1411 1409 1412 1417 1404 1391 1386 1376 1378 1381 1381 1383 1384 1385 1386 1385 1384 1380 1377 1376 1368 1364 1358 1352 1348 1350 1342 1335 1337 1341 1338 1336 1334 1331 1332 1332
1417 1416 1415 1415 1413 1412 1410 1410 1409 1409 1409 1409 1410 1410 1410 1410 1411 1410 1405 1401 1401 1406 1407 1394 1379 1368 1366 1368 1371 1374 1374 1376 1379 1376 1375 1371 1368 1372 1370 1359 1343 1341 1339 1337 1335 1330 1327 1326 1329 1328 1328 1327 1326 1326
1414 1413 1412 1411 1410 1408 1407 1406 1404 1404 1405 1405 1405 1406 1405 1405 1406 1406 1403 1400 1399 1401 1401 1394 1378 1365 1362 1364 1367 1369 1370 1371 1374 1372 1369 1366 1364 1368 1364 1354 1335 1337 1334 1333 1332 1329 1327 1324 1327 1326 1322 1318 1316 1314
1410 1410 1408 1407 1407 1405 1404 1403 1401 1400 1400 1401 1401 1402 1401 1399 1399 1396 1393 1397 1400 1403 1401 1394 1380 1366 1361 1362 1365 1365 1366 1368 1368 1366 1362 1358 1357 1357 1347 1334 1332 1330 1330 1330 1331 1328 1327 1325 1323 1325 1324 1319 1315 1312
1406 1405 1404 1403 1402 1402 1400 1399 1398 1397 1397 1397 1397 1397 1395 1393 1392 1387 1388 1390 1394 1400 1391 1384 1377 1373 1360 1360 1360 1361 1360 1361 1360 1358 1353 1352 1348 1345 1333 1327 1329 1330 1330 1329 1326 1325 1325 1325 1324 1321 1320 1318 1314 1310
1402 1401 1400 1398 1397 1397 1396 1395 1394 1393 1393 1394 1393 1393 1390 1386 1385 1387 1385 1386 1387 1385 1380 1370 1365 1363 1362 1359 1357 1356 1355 1354 1353 1344 1341 1342 1336 1330 1331 1329 1330 1330 1329 1328 1327 1325 1323 1321 1320 1317 1315 1312 1308 1303
1398 1397 1395 1394 1393 1392 1392 1391 1390 1390 1390 1390 1388 1386 1386 1384 1384 1383 1381 1380 1377 1373 1365 1356 1355 1354 1355 1355 1355 1354 1349 1347 1350 1337 1338 1333 1332 1332 1332 1331 1330 1329 1328 1328 1327 1324 1322 1320 1318 1314 1310 1306 1300 1295
1392 1391 1391 1389 1388 1388 1387 1387 1387 1387 1387 1386 1387 1384 1383 1382 1380 1380 1374 1368 1364 1357 1348 1347 1345 1347 1346 1345 1344 1344 1344 1341 1338 1329 1333 1331 1334 1334 1332 1330 1329 1328 1327 1324 1321 1319 1317 1315 1312 1308 1303 1297 1292 1285
1387 1386 1386 1385 1383 1383 1382 1382 1382 1383 1383 1384 1385 1382 1380 1378 1380 1370 1371 1357 1355 1343 1341 1343 1343 1341 1341 1341 1340 1340 1341 1342 1328 1340 1331 1333 1336 1334 1332 1331 1329 1327 1325 1322 1319 1316 1313 1309 1306 1302 1297 1291 1284 1278
1383 1382 1381 1380 1378 1376 1375 1376 1378 1380 1381 1380 1377 1379 1372 1365 1357 1350 1348 1346 1343 1341 1341 1342 1340 1339 1336 1340 1338 1339 1333 1330 1337 1337 1326 1335 1335 1335 1334 1332 1329 1326 1323 1320 1316 1312 1308 1305 1300 1296 1291 1285 1279 1272
1379 1379 1376 1376 1374 1374 1373 1374 1375 1377 1378 1375 1369 1367 1352 1345 1341 1340 1341 1341 1341 1341 1340 1340 1338 1336 1335 1336 1332 1330 1331 1330 1323 1332 1332 1334 1334 1333 1332 1330 1327 1324 1321 1318 1314 1309 1304 1301 1295 1290 1285 1280 1275 1268
1375 1375 1372 1372 1372 1371 1371 1371 1371 1373 1372 1368 1360 1350 1343 1343 1341 1339 1339 1339 1339 1338 1339 1339 1338 1334 1331 1328 1326 1328 1319 1328 1329 1330 1330 1331 1331 1331 1330 1328 1326 1323 1320 1315 1310 1306 1301 1298 1293 1288 1282 1277 1272 1266
1371 1370 1369 1369 1368 1368 1369 1368 1369 1366 1361 1354 1345 1342 1342 1341 1339 1337 1337 1337 1337 1337 1338 1335 1336 1329 1321 1322 1315 1319 1325 1325 1327 1328 1329 1329 1329 1328 1327 1326 1323 1321 1317 1313 1308 1303 1299 1297 1293 1287 1280 1276 1271 1265
1363 1365 1366 1363 1364 1364 1363 1363 1363 1355 1346 1341 1340 1336 1337 1336 1334 1332 1332 1333 1333 1332 1333 1331 1327 1323 1321 1315 1319 1322 1323 1324 1326 1327 1327 1327 1326 1325 1324 1322 1321 1318 1314 1310 1306 1301 1298 1295 1290 1285 1281 1277 1271 1265
1357 1359 1360 1361 1362 1363 1361 1354 1352 1344 1335 1333 1331 1330 1330 1328 1327 1326 1326 1326 1327 1327 1327 1326 1324 1321 1319 1321 1322 1324 1324 1325 1326 1326 1326 1325 1323 1322 1321 1319 1318 1316 1312 1308 1304 1301 1298 1295 1290 1285 1282 1278 1273 1267
1351 1354 1356 1358 1359 1359 1355 1345 1341 1334 1326 1324 1324 1323 1322 1320 1320 1319 1319 1320 1321 1321 1322 1321 1318 1317 1318 1321 1321 1323 1323 1324 1325 1325 1324 1322 1321 1320 1318 1316 1314 1312 1310 1307 1304 1300 1297 1293 1290 1285 1282 1278 1274 1270
1348 1349 1351 1352 1352 1352 1348 1337 1330 1324 1320 1317 1315 1316 1313 1313 1311 1311 1311 1313 1315 1315 1314 1312 1313 1315 1316 1318 1320 1321 1321 1322 1322 1323 1322 1320 1319 1318 1315 1313 1311 1309 1307 1305 1302 1299 1296 1292 1289 1285 1282 1279 1276 1272
1342 1345 1345 1346 1345 1342 1335 1328 1325 1319 1317 1313 1311 1310 1309 1308 1306 1305 1306 1306 1307 1307 1308 1309 1310 1312 1314 1316 1317 1318 1319 1319 1319 1320 1319 1318 1317 1315 1313 1312 1309 1307 1305 1304 1301 1298 1296 1292 1289 1286 1283 1280 1277 1273
1338 1340 1340 1340 1338 1329 1319 1317 1317 1315 1316 1309 1307 1307 1304 1302 1299 1300 1301 1300 1301 1302 1304 1306 1308 1310 1312 1314 1315 1315 1316 1316 1317 1317 1316 1316 1315 1313 1312 1310 1307 1305 1303 1302 1300 1298 1295 1293 1290 1286 1284 1281 1278 1275
1334 1334 1332 1329 1325 1317 1310 1305 1303 1302 1301 1302 1303 1302 1299 1297 1298 1298 1297 1296 1298 1300 1302 1304 1306 1308 1310 1312 1313 1313 1314 1315 1316 1314 1314 1313 1312 1312 1311 1310 1307 1305 1303 1301 1298 1296 1294 1292 1289 1287 1284 1282 1280 1277
1327 1324 1323 1316 1310 1306 1304 1300 1297 1295 1299 1296 1296 1298 1294 1295 1296 1295 1294 1295 1297 1299 1300 1303 1305 1306 1307 1309 1311 1312 1313 1314 1314 1313 1313 1312 1311 1310 1309 1308 1306 1304 1302 1299 1297 1294 1293 1291 1289 1286 1285 1283 1281 1279
1313 1306 1307 1302 1300 1300 1295 1294 1292 1292 1291 1292 1290 1290 1290 1289 1287 1289 1292 1294 1296 1298 1300 1302 1303 1305 1306 1307 1309 1310 1311 1312 1312 1311 1312 1311 1310 1309 1308 1306 1305 1303 1301 1299 1296 1294 1292 1290 1288 1287 1285 1284 1282 1280
1300 1294 1292 1290 1290 1287 1287 1283 1282 1283 1286 1288 1285 1287 1288 1288 1290 1296 1295 1296 1296 1299 1300 1301 1301 1302 1304 1306 1308 1309 1309 1310 1311 1311 1311 1310 1309 1309 1308 1306 1304 1302 1300 1298 1296 1294 1291 1289 1287 1286 1285 1283 1283 1281
1286 1284 1286 1284 1284 1284 1284 1283 1280 1282 1280 1278 1282 1281 1284 1287 1293 1294 1295 1296 1297 1298 1299 1300 1301 1303 1304 1306 1307 1307 1308 1309 1309 1310 1311 1309 1308 1308 1306 1305 1303 1301 1299 1297 1295 1293 1290 1288 1285 1284 1283 1282 1282 1281
1276 1275 1279 1278 1280 1279 1279 1277 1276 1278 1279 1279 1282 1284 1289 1292 1293 1293 1294 1296 1297 1298 1299 1300 1302 1303 1304 1305 1306 1307 1307 1307 1308 1308 1308 1308 1307 1307 1304 1302 1300 1298 1296 1295 1293 1291 1288 1286 1283 1281 1280 1280 1280 1281
1268 1271 1273 1272 1273 1272 1274 1275 1276 1277 1278 1280 1282 1286 1289 1291 1292 1293 1294 1295 1297 1297 1299 1300 1302 1303 1303 1304 1306 1306 1306 1306 1306 1307 1306 1306 1305 1304 1302 1300 1298 1296 1294 1292 1290 1288 1286 1283 1281 1279 1277 1277 1278 1278
1263 1265 1268 1270 1267 1271 1274 1276 1277 1278 1280 1281 1282 1284 1288 1290 1292 1293 1295 1295 1296 1297 1299 1300 1302 1303 1304 1305 1305 1305 1306 1306 1306 1306 1305 1305 1304 1303 1301 1299 1297 1295 1293 1291 1288 1286 1284 1281 1279 1277 1276 1275 1275 1276
1258 1259 1261 1266 1272 1274 1275 1276 1278 1279 1280 1281 1283 1285 1287 1289 1291 1292 1293 1293 1295 1297 1298 1299 1300 1301 1303 1304 1304 1305 1305 1305 1305 1305 1304 1303 1302 1301 1300 1298 1296 1295 1293 1290 1288 1286 1284 1281 1279 1276 1274 1273 1273 1274
1257 1260 1262 1267 1272 1274 1275 1277 1278 1279 1279 1279 1281 1282 1284 1285 1287 1290 1291 1293 1294 1295 1296 1298 1300 1301 1303 1303 1304 1304 1304 1304 1304 1303 1303 1302 1301 1300 1298 1297 1296 1294 1292 1290 1288 1286 1284 1282 1279 1277 1274 1272 1272 1271
Wind_Speed
14 13 13 13 13 13 15 15 16 19 14 13 15 16 16 15 14 15 21 17 19 21 31 33 35 30 23 19 9 14 10 5 2 2 3 4 3 4 4 9 12 9 4 4 4 6 8 13 1 0 2 11 13 10
12 9 10 12 14 15 16 17 17 14 15 18 16 15 16 15 14 15 20 16 19 26 32 35 34 32 30 27 23 9 6 7 6 2 3 2 5 5 7 3 4 4 7 2 7 6 3 10 3 10 17 11 10 16
10 10 12 12 13 14 17 19 12 15 16 13 14 15 13 14 15 16 21 23 23 25 34 32 33 29 23 29 35 25 25 18 16 24 5 4 8 2 2 4 4 4 5 3 2 5 7 17 22 18 23 22 15 19
9 10 12 12 13 15 11 11 13 15 17 17 16 13 13 15 15 16 21 19 17 13 6 14 18 20 18 20 26 32 36 23 25 18 4 2 3 6 3 4 7 5 7 6 8 8 10 7 10 10 19 19 18 21
9 8 8 10 13 13 13 14 16 20 13 13 12 11 13 12 15 17 25 28 24 18 5 15 36 31 23 28 28 25 26 31 21 5 5 4 3 4 4 3 5 4 7 4 8 14 14 10 8 12 14 19 17 19
9 9 11 11 10 12 14 12 13 13 13 10 10 11 12 12 14 14 7 3 14 23 9 3 11 37 31 18 14 23 26 27 16 6 3 6 9 2 3 4 9 12 16 26 14 27 32 23 13 12 17 17 19 21
10 10 10 9 9 9 10 11 12 11 12 10 11 12 12 13 13 15 6 1 2 18 5 4 4 7 12 12 10 10 13 9 9 4 5 6 7 5 2 11 22 28 28 30 14 14 7 19 17 19 21 24 26 28
14 13 12 11 9 11 12 12 10 11 12 11 12 14 14 14 15 24 26 20 20 18 7 3 5 6 7 6 3 7 6 7 8 5 5 3 3 8 6 8 20 23 5 6 8 12 13 16 19 20 23 29 32 34
14 15 15 16 16 14 10 10 12 12 10 11 13 16 14 13 11 15 6 6 18 16 4 6 3 4 6 4 8 8 10 4 8 5 3 5 3 5 7 10 3 13 5 10 14 15 17 18 19 21 22 25 28 31
15 12 12 13 15 17 16 13 13 12 9 10 10 4 5 6 10 8 4 5 12 14 13 5 6 6 5 3 2 2 4 2 3 6 6 3 4 12 17 11 11 11 13 14 15 17 20 20 20 26 28 30 33 38
16 15 15 13 12 14 15 13 11 12 7 5 5 6 4 3 3 5 4 6 7 4 8 9 18 12 16 8 4 6 2 3 2 4 5 3 1 1 9 10 14 14 14 13 14 17 19 20 22 26 29 32 35 37
15 15 14 13 13 13 16 13 9 8 6 5 10 15 5 4 6 3 3 4 5 5 7 4 9 14 6 6 4 5 4 1 5 2 2 2 2 11 13 16 17 16 17 20 19 19 21 21 22 26 31 32 32 34
14 12 13 16 17 16 15 12 9 9 11 8 5 4 4 7 3 5 5 4 3 3 4 7 2 4 3 4 2 0 1 4 0 2 2 3 3 10 14 15 16 17 18 19 22 20 20 23 25 25 27 27 29 31
14 12 15 17 19 13 13 12 9 5 4 5 5 4 5 5 5 5 4 3 4 6 10 10 4 3 6 3 3 2 4 2 2 2 2 2 5 7 8 10 14 16 18 19 21 21 21 23 25 23 23 24 27 28
12 14 15 13 14 8 7 9 11 9 5 5 6 5 6 9 13 12 10 10 10 6 4 3 5 5 2 1 3 3 2 4 3 2 2 1 6 7 8 11 14 17 19 20 21 20 21 23 23 24 25 24 24 25
13 15 13 8 9 12 9 7 12 12 5 6 8 5 9 5 6 12 9 11 13 7 2 2 2 3 5 3 5 6 3 2 2 2 5 5 6 8 8 12 14 16 17 20 20 19 19 21 21 22 23 23 22 22
12 13 9 13 9 10 10 9 7 8 8 6 6 17 21 16 13 19 19 19 14 5 2 3 4 8 2 3 4 2 2 2 4 6 3 5 7 8 9 12 14 17 18 20 21 21 17 19 19 21 23 23 22 21
16 8 9 11 8 12 14 13 8 7 8 15 6 17 18 21 21 23 20 19 16 8 3 3 7 2 3 3 2 0 5 7 7 5 5 6 8 7 12 12 15 16 18 19 20 19 17 17 20 19 20 20 20 21
12 14 13 10 9 8 5 6 14 5 13 14 19 23 22 22 23 25 23 20 17 13 4 3 4 3 1 2 3 9 7 3 4 6 6 4 9 14 16 8 11 15 18 18 17 16 17 14 16 15 16 18 19 20
11 12 13 13 10 4 5 8 9 8 4 14 24 25 25 25 27 27 23 18 14 7 4 4 3 1 4 6 6 6 3 2 3 7 7 9 12 16 10 12 13 14 15 15 14 15 17 17 15 15 15 15 16 18
10 11 11 12 14 16 8 7 8 8 8 12 18 22 17 18 17 17 14 15 8 4 3 3 8 9 7 7 6 6 6 5 3 4 9 11 13 12 10 13 12 9 11 13 15 16 17 17 14 14 14 14 14 14
15 9 11 14 7 7 13 17 10 7 7 11 14 12 6 3 7 14 11 9 5 7 5 9 11 9 7 8 8 6 6 5 2 4 8 10 11 10 13 13 8 10 11 10 13 15 15 16 13 12 12 13 13 14
14 14 12 8 6 7 8 19 13 13 5 3 5 3 3 2 6 5 2 4 5 7 11 12 13 10 10 10 5 4 2 2 1 4 6 8 5 7 7 11 11 12 10 8 9 11 11 13 14 11 11 12 12 12
13 7 7 8 15 5 8 7 9 7 8 8 7 11 8 2 6 2 3 4 8 13 11 10 7 7 7 7 9 7 2 5 2 4 7 6 5 6 7 8 10 10 12 11 9 9 9 10 9 11 11 10 10 11
7 10 8 8 9 6 5 4 6 6 5 5 4 4 2 4 3 3 3 4 14 12 11 7 9 9 9 13 11 5 2 6 3 4 5 8 4 2 3 4 8 11 12 11 10 9 9 9 9 9 8 9 8 9
7 10 10 6 5 6 4 3 7 7 3 4 5 1 0 3 3 1 2 6 13 14 12 11 10 8 9 11 14 9 3 2 1 4 4 8 8 8 6 8 9 9 12 11 13 13 11 10 9 9 7 7 5 6
6 5 11 21 20 11 5 7 13 2 4 4 3 4 3 3 2 1 4 10 15 13 12 10 8 10 15 10 6 3 3 1 3 4 2 6 6 9 11 12 12 12 12 11 11 12 14 13 11 8 7 3 6 4
9 11 9 12 13 19 7 4 3 4 3 4 1 4 3 1 2 3 4 12 13 13 13 11 10 12 12 9 7 7 6 5 5 4 2 8 6 8 12 14 11 11 10 10 10 11 12 15 14 10 8 5 3 6
9 14 14 8 6 6 6 4 3 3 1 2 2 2 2 3 3 10 13 11 9 9 10 11 9 8 7 5 4 3 2 6 8 6 4 5 6 11 14 10 10 10 10 9 8 10 12 14 12 11 10 7 4 6
6 16 2 4 6 4 2 3 5 6 4 5 6 5 5 4 7 11 10 9 10 9 8 7 8 6 4 2 2 2 3 2 2 4 6 7 7 10 10 11 11 11 11 10 11 11 12 11 7 5 5 8 6 9
7 13 4 7 2 4 9 9 6 6 5 4 4 5 7 6 9 11 9 10 12 14 13 12 10 10 9 6 4 3 1 1 0 1 2 4 6 7 8 10 10 11 10 10 11 13 14 14 12 8 6 4 10 12
10 6 3 3 2 6 5 4 5 3 4 4 4 4 5 5 7 10 9 14 14 11 8 9 11 10 9 8 8 7 5 3 2 2 3 4 5 7 8 8 9 9 9 9 10 13 12 13 12 11 8 5 5 14
4 9 7 5 3 2 5 4 5 3 5 5 5 10 11 7 3 8 11 11 10 10 14 14 12 10 7 6 5 4 2 1 2 2 3 5 5 6 7 8 8 7 8 9 10 11 11 12 12 10 10 7 4 11
Wind_Direction
285 283 267 270 278 277 272 272 278 284 278 270 272 273 278 255 255 264 267 260 256 271 276 275 272 266 270 266 275 289 321 302 339 197 164 239 231 231 254 254 251 248 242 211 188 218 254 287 115 33 246 329 341 355
290 265 271 272 277 273 270 277 279 278 285 283 270 268 269 249 256 270 265 274 282 269 267 277 267 268 263 263 275 264 258 290 248 331 303 332 303 290 245 250 331 254 221 248 197 215 280 338 34 333 302 286 317 317
291 275 277 278 281 284 283 278 265 277 289 284 275 270 251 250 261 267 284 284 280 281 284 272 267 285 274 258 263 252 257 260 259 250 256 239 240 234 226 242 258 247 303 211 319 256 287 312 293 299 291 299 309 312
296 286 281 272 279 296 286 278 282 284 282 284 271 257 256 259 265 273 274 278 264 269 280 287 298 279 278 266 258 249 258 244 249 235 257 245 259 230 243 264 280 248 295 274 267 258 261 269 264 268 290 293 303 297
327 318 294 280 284 288 281 283 284 283 283 275 267 252 272 268 277 281 287 266 249 238 285 300 296 296 267 253 242 236 245 244 236 219 221 226 225 238 245 257 250 214 237 237 272 287 289 292 327 338 302 301 309 311
314 307 302 299 289 288 286 291 291 291 278 255 268 267 285 278 290 289 307 28 245 233 249 271 295 290 291 264 239 237 261 226 228 197 250 239 231 255 261 254 237 260 281 254 257 280 277 289 323 359 350 339 328 321
301 302 301 298 304 317 308 298 293 287 273 256 275 274 276 274 269 235 230 283 333 210 283 299 276 270 325 194 212 249 219 217 223 236 228 247 245 260 253 264 269 278 275 280 315 352 349 354 357 343 334 328 319 310
288 288 290 296 302 304 304 317 301 288 267 266 281 280 280 276 261 254 247 240 261 276 253 260 264 273 223 173 209 209 187 196 219 223 241 222 239 193 243 251 255 272 290 3 316 354 358 340 333 330 316 310 310 309
309 305 291 280 283 292 308 315 317 297 267 277 290 288 278 258 250 268 301 265 238 222 244 213 221 268 185 220 209 192 200 205 206 217 228 194 199 224 227 243 349 354 1 350 349 347 339 334 327 321 318 310 304 300
318 306 309 312 295 283 277 286 301 302 277 291 293 249 237 210 238 266 265 204 201 216 220 236 232 253 261 193 270 230 170 243 230 222 197 200 246 259 10 26 69 32 21 13 1 347 340 338 334 322 316 309 303 298
310 306 301 299 307 304 286 270 285 300 278 259 226 216 277 320 286 223 231 205 197 232 219 245 227 244 251 238 236 242 233 237 241 253 177 222 235 58 49 19 30 24 5 348 338 329 323 319 315 310 305 302 299 295
306 303 307 302 295 305 309 262 264 269 243 275 306 303 292 226 222 221 227 224 206 231 194 195 216 204 235 239 185 178 222 81 248 194 130 267 60 26 28 15 9 2 348 345 344 329 322 315 314 311 309 306 304 305
306 302 305 315 303 289 287 267 241 261 272 272 228 237 208 213 245 215 218 229 234 232 17 342 268 205 186 203 243 239 244 233 16 57 222 58 24 23 12 357 354 351 346 342 341 336 330 325 320 325 322 319 317 317
306 300 306 311 314 294 284 234 206 189 219 237 224 251 206 215 224 205 238 251 299 337 343 317 270 196 209 170 196 234 232 340 294 223 108 83 82 22 354 349 354 353 350 345 345 345 339 331 327 336 341 336 331 325
292 302 306 309 313 308 307 222 209 195 223 241 226 234 230 235 258 266 294 314 313 327 350 305 266 227 251 225 215 231 276 242 199 96 102 64 59 14 1 358 355 350 345 345 346 347 345 340 338 339 342 341 337 334
269 299 302 276 323 320 291 229 198 206 228 234 233 254 271 302 283 280 314 307 315 287 211 217 277 282 232 213 188 215 235 186 147 103 68 31 15 346 354 349 347 346 341 344 344 349 354 349 348 346 350 350 347 347
246 277 297 299 306 304 296 265 233 221 225 223 236 240 255 271 272 278 284 282 296 276 217 197 211 224 281 229 214 55 98 109 127 97 51 2 340 336 353 343 341 342 340 343 347 351 346 345 348 356 356 354 355 358
227 275 275 281 313 320 308 242 229 246 237 230 247 252 263 271 275 275 278 282 271 225 203 232 314 265 242 283 33 183 105 95 82 52 357 329 312 329 329 336 335 339 339 343 346 346 347 344 349 354 359 354 358 4
224 242 262 302 312 310 275 241 215 256 233 231 240 250 253 261 268 273 271 271 256 255 213 252 228 225 187 34 83 90 86 79 348 330 328 297 330 327 321 324 334 338 344 344 344 346 348 344 353 357 2 5 7 7
237 254 262 280 267 242 244 247 232 241 234 237 247 250 255 260 267 267 263 260 233 181 185 209 225 84 123 141 144 149 176 230 295 305 308 317 322 326 335 340 339 334 344 348 348 348 343 345 356 1 0 1 5 10
256 261 262 258 259 227 251 272 241 241 240 224 243 251 253 260 262 260 237 219 186 211 220 220 155 159 184 183 189 180 210 214 235 288 304 310 319 328 329 342 342 341 344 357 356 352 344 344 349 353 357 1 7 9
251 252 265 253 250 244 229 228 240 267 266 270 287 288 264 275 259 245 211 195 200 196 198 164 179 188 189 197 197 215 247 264 202 277 276 303 326 338 344 342 345 342 342 334 360 4 349 346 351 356 359 360 359 2
248 250 252 243 252 246 246 229 223 229 235 260 293 277 265 251 216 199 226 205 156 184 191 178 174 181 186 182 199 219 283 161 70 245 304 328 336 332 343 8 333 342 346 342 354 1 5 350 350 353 352 353 355 360
235 232 227 218 208 245 237 228 217 211 220 228 238 248 256 258 168 221 221 164 165 179 193 197 207 182 178 178 185 180 321 165 81 280 328 339 9 14 3 8 348 350 351 341 333 344 2 3 354 351 355 351 355 359
218 205 211 230 238 214 229 232 240 238 226 218 201 255 225 133 199 220 211 140 162 168 177 169 168 200 204 188 177 185 142 167 115 259 327 336 354 10 5 13 351 337 342 345 350 345 347 0 9 6 340 349 348 354
225 215 197 212 222 223 247 212 197 206 206 201 225 116 218 208 212 201 65 148 157 168 174 176 175 162 122 151 152 147 176 205 143 191 330 335 4 15 8 358 356 7 6 7 360 352 344 339 346 360 2 343 345 347
221 217 216 224 247 261 248 241 238 202 203 209 205 151 180 241 189 88 99 129 135 153 165 168 162 180 163 165 175 224 273 172 195 265 301 329 351 0 1 354 345 345 351 351 357 356 348 337 322 321 345 325 304 301
214 210 230 248 238 240 251 257 191 208 221 147 314 177 195 137 117 111 153 158 165 167 168 160 153 155 156 167 190 196 206 204 164 104 153 245 262 305 329 328 320 321 332 339 340 342 345 337 324 302 290 321 274 282
213 214 225 236 259 234 215 223 211 93 101 359 104 99 105 89 118 146 153 172 184 189 185 181 172 186 186 186 195 203 181 176 164 169 180 177 247 293 314 330 332 331 329 335 343 338 339 336 326 314 276 254 247 231
208 198 192 241 198 180 96 72 124 127 112 109 109 108 105 129 138 165 174 175 169 165 158 147 144 151 162 184 46 72 95 117 192 220 226 251 284 306 336 336 340 350 352 352 342 339 343 343 322 287 250 229 218 214
192 189 191 223 109 77 114 119 113 130 117 109 116 146 134 145 151 160 175 181 194 182 173 171 176 173 181 180 217 245 104 64 306 267 291 308 325 339 337 343 351 353 352 352 354 346 345 352 352 338 323 263 207 202
193 198 144 103 93 117 128 139 156 152 149 147 134 129 136 140 171 191 195 195 182 187 197 188 187 181 189 202 219 236 260 297 320 330 335 334 336 338 343 346 350 348 345 346 348 344 351 356 357 356 344 308 235 197
88 85 83 98 101 155 200 180 182 153 192 180 162 182 184 186 143 175 188 188 192 191 185 185 199 207 211 199 192 187 198 243 294 322 332 334 335 336 335 339 343 342 339 347 347 357 5 7 8 5 1 349 303 202